Regional Weather Roundup
Issued by NWS

Home | Current Version | Previous Version | Graphics & Text | Print | Product List | Glossary On
Versions: 1 2 3 4 5 6 7 8 9 10 11 12 13 14 15 16 17 18 19 20 21 22 23 24 25 26 27 28 29 30 31 32 33 34 35 36 37 38 39 40 41 42 43 44 45 46 47 48 49 50
943
ASUS45 KBOI 261110
RWRID

IDAHO REGIONAL WEATHER ROUNDUP
NATIONAL WEATHER SERVICE BOISE ID
500 AM MDT THU APR 26 2018

NOTE: "FAIR" INDICATES FEW OR NO CLOUDS BELOW 12000 FEET
WITH NO SIGNIFICANT WEATHER AND/OR OBSTRUCTIONS TO VISIBILITY

IDZ012-014-261200-
SOUTHWEST IDAHO


CITY           SKY/WX    TMP DP  RH WIND       PRES   REMARKS
BOISE          CLEAR     49  34  56 S7        30.12R
CALDWELL       CLEAR     43  37  79 CALM      30.12R
MOUNTAIN HOME  CLEAR     40  31  70 E6        30.12R
$$

IDZ016-017-261200-
SOUTHCENTRAL IDAHO


CITY           SKY/WX    TMP DP  RH WIND       PRES   REMARKS
BURLEY         CLEAR     33  26  75 CALM      30.19R
JEROME         CLEAR     43  28  55 E10       30.18R
TWIN FALLS     CLEAR     42  26  53 S7        30.18R
$$

IDZ019>023-261200-
SOUTHEAST IDAHO


CITY           SKY/WX    TMP DP  RH WIND       PRES   REMARKS
IDAHO FALLS    CLEAR     39  31  72 NE10      30.24R WCI  32
POCATELLO      CLEAR     40  30  67 CALM      30.22R
REXBURG        CLEAR     40  31  70 NE9       30.25R WCI  34
$$

IDZ006-010-011-018-031-032-261200-
CENTRAL IDAHO MOUNTAINS


CITY           SKY/WX    TMP DP  RH WIND       PRES   REMARKS
MCCALL         CLEAR     32  28  85 CALM      30.20R
HAILEY         CLEAR     41  27  56 NW13      30.25R
STANLEY          N/A     27  23  85 CALM      30.31R
SALMON         CLEAR     34  26  72 CALM      30.26R
CHALLIS        CLEAR     36  23  59 NW3       30.26R
$$

IDZ002-004-006-007-026-261200-
NORTHERN IDAHO


CITY           SKY/WX    TMP DP  RH WIND       PRES   REMARKS
LEWISTON       CLEAR     50  39  66 SE5       30.14R
LOWELL           N/A     42  38  85 VRB3      30.24R
COEUR D`ALENE  CLEAR     43  32  65 E7        30.17R
MULLAN PASS    CLEAR     48  23  37 SW3       30.23S
$$




USA.gov is the U.S. government's official web portal to all federal, state and local government web resources and services.